GW4564 Weather Reports


time (UTC)temp
C
wind
direction
speed
KPH
gust
KPH
rain 1hr
cm
rain 24hr
cm
rain mn
cm
humidity
%
barometer
mb
20260504151008 22 238 4.8 16.1 0.00 0.00 0.00 41 1001.6
20260504150509 22 219 8.0 17.7 0.00 0.00 0.00 39 1001.6
20260504141006 18 236 3.2 11.3 0.00 0.00 0.00 49 1002.3
20260504140507 18 260 6.4 12.9 0.00 0.00 0.00 49 1002.4
20260504130506 14 205 3.2 9.7 0.00 0.03 0.00 62 1003.1
20260504110509 9 232 4.8 8.0 0.00 0.03 0.00 71 1003.4
20260504100509 9 243 3.2 8.0 0.00 0.03 0.00 67 1003.8
20260504081521 10 255 1.6 6.4 0.00 0.03 0.00 62 1004.6
20260504081003 9 215 0.0 4.8 0.00 0.03 0.00 62 1004.7
20260504080509 9 217 0.0 6.4 0.00 0.03 0.00 61 1004.7
20260504050508 11 216 1.6 4.8 0.00 0.03 0.00 53 1006.5
20260504050020 12 231 0.0 0.0 0.00 0.03 0.00 53 1006.5
20260504045503 12 231 0.0 1.6 0.00 0.03 0.03 50 1006.5
20260504045007 13 231 0.0 3.2 0.00 0.03 0.03 49 1006.6
20260504044524 13 231 0.0 8.0 0.00 0.03 0.03 48 1006.7
20260504044009 13 250 3.2 8.0 0.00 0.03 0.03 48 1006.7
20260504043509 13 243 3.2 4.8 0.00 0.03 0.03 48 1006.8
20260504043028 12 228 0.0 6.4 0.00 0.03 0.03 51 1006.8
20260504042509 12 213 3.2 6.4 0.00 0.03 0.03 53 1006.8
20260504042011 12 214 0.0 3.2 0.00 0.03 0.03 56 1006.8
20260504041539 12 278 0.0 1.6 0.00 0.03 0.03 53 1006.8
20260504041005 12 278 0.0 1.6 0.00 0.03 0.03 52 1006.8
20260504040507 12 278 0.0 1.6 0.00 0.03 0.03 53 1006.8
20260504040021 12 305 0.0 1.6 0.00 0.03 0.03 52 1006.8
20260504035505 12 64 0.0 1.6 0.00 0.03 0.03 51 1006.9
20260504035006 12 331 0.0 1.6 0.00 0.03 0.03 50 1006.8
20260504034518 12 331 0.0 1.6 0.00 0.03 0.03 53 1006.8
20260504034006 13 34 0.0 0.0 0.00 0.03 0.03 51 1006.8
20260504033507 13 105 0.0 0.0 0.00 0.03 0.03 51 1006.8
20260504033026 13 245 0.0 0.0 0.00 0.03 0.03 50 1006.8
20260504032506 13 245 0.0 0.0 0.00 0.03 0.03 50 1006.8
20260504032012 13 245 0.0 0.0 0.00 0.03 0.03 49 1006.8
20260504031528 13 245 0.0 0.0 0.00 0.03 0.03 49 1006.8
20260504031010 13 245 0.0 0.0 0.00 0.03 0.03 47 1006.8
20260504030509 14 245 0.0 4.8 0.00 0.03 0.03 46 1006.8
20260504030029 14 245 0.0 4.8 0.00 0.03 0.03 45 1006.8
20260504025507 14 237 0.0 3.2 0.00 0.03 0.03 46 1006.8
20260504025007 15 145 1.6 3.2 0.00 0.03 0.03 46 1006.8
20260504024517 15 258 0.0 3.2 0.00 0.03 0.03 43 1006.7
20260504024009 15 220 0.0 1.6 0.00 0.03 0.03 43 1006.7
20260504023504 15 221 0.0 1.6 0.00 0.03 0.03 42 1006.7
20260504023022 15 221 0.0 1.6 0.00 0.03 0.03 41 1006.7
20260504022508 16 221 0.0 1.6 0.00 0.03 0.03 40 1006.6
20260504022009 16 221 0.0 1.6 0.00 0.03 0.03 39 1006.5
20260504021523 16 245 0.0 4.8 0.00 0.03 0.03 38 1006.4
20260504021007 17 245 0.0 4.8 0.00 0.03 0.03 38 1006.4
20260504020503 17 217 3.2 4.8 0.00 0.03 0.03 37 1006.4
20260504020010 17 228 1.6 4.8 0.00 0.03 0.03 37 1006.4
20260504015504 17 235 0.0 4.8 0.00 0.03 0.03 37 1006.3
20260504015002 17 274 0.0 4.8 0.00 0.03 0.03 36 1006.3
20260504014514 17 224 1.6 4.8 0.00 0.03 0.03 37 1006.2
20260504014006 17 276 0.0 4.8 0.00 0.03 0.03 36 1006.2
20260504013508 17 247 1.6 4.8 0.00 0.03 0.03 37 1006.1
20260504013021 17 307 1.6 4.8 0.00 0.03 0.03 36 1006.1
20260504012508 18 258 0.0 1.6 0.00 0.03 0.03 36 1006.0
20260504012007 18 41 0.0 4.8 0.00 0.03 0.03 36 1006.0
20260504011525 18 257 0.0 4.8 0.00 0.03 0.03 34 1006.0
20260504011008 19 213 1.6 6.4 0.00 0.03 0.03 34 1006.0
20260504010509 19 248 1.6 6.4 0.00 0.03 0.03 33 1006.0
20260504010024 19 206 1.6 4.8 0.00 0.03 0.03 33 1006.0
20260504005509 20 226 0.0 6.4 0.00 0.03 0.03 33 1005.9
20260504005010 20 254 1.6 6.4 0.00 0.03 0.03 32 1005.9
20260504004528 20 307 1.6 9.7 0.00 0.03 0.03 31 1006.0
20260504004009 21 295 1.6 9.7 0.00 0.03 0.03 31 1005.9
20260504003508 21 248 1.6 9.7 0.00 0.03 0.03 30 1005.8
20260504003029 21 263 1.6 9.7 0.00 0.03 0.03 30 1005.9
20260504002503 21 212 3.2 9.7 0.00 0.03 0.03 30 1005.8
20260504002007 21 274 4.8 11.3 0.00 0.03 0.03 29 1005.8
20260504001528 22 281 3.2 11.3 0.00 0.03 0.03 29 1005.7
20260504001005 22 232 4.8 14.5 0.00 0.03 0.03 30 1005.7
20260504000509 22 219 6.4 12.9 0.00 0.03 0.03 28 1005.7
20260504000028 22 6 4.8 16.1 0.00 0.03 0.03 28 1005.7
20260503235508 22 4 4.8 11.3 0.00 0.03 0.03 28 1005.6
20260503235011 22 268 1.6 19.3 0.00 0.03 0.03 29 1005.6
20260503234529 23 262 6.4 19.3 0.00 0.03 0.03 28 1005.6
20260503234011 23 280 3.2 11.3 0.00 0.03 0.03 29 1005.5
20260503233510 23 31 4.8 17.7 0.00 0.03 0.03 29 1005.5
20260503233019 22 269 9.7 17.7 0.00 0.03 0.03 31 1005.5
20260503232514 22 268 6.4 20.9 0.00 0.03 0.03 35 1005.3
20260503232010 22 230 6.4 20.9 0.00 0.03 0.03 37 1005.5
20260503231518 22 281 6.4 17.7 0.00 0.03 0.03 39 1005.5
20260503231010 22 225 6.4 17.7 0.00 0.03 0.03 39 1005.6
20260503230511 22 214 4.8 17.7 0.00 0.03 0.03 38 1005.6
20260503230035 22 247 6.4 20.9 0.00 0.03 0.03 38 1005.6
20260503225505 22 261 6.4 24.1 0.00 0.03 0.03 39 1005.6
20260503225008 22 214 4.8 24.1 0.00 0.03 0.03 38 1005.6
20260503224527 22 225 9.7 17.7 0.00 0.03 0.03 38 1005.6
20260503224008 23 330 8.0 16.1 0.00 0.03 0.03 38 1005.6
20260503223511 23 260 6.4 22.5 0.00 0.03 0.03 37 1005.6
20260503223026 23 283 4.8 22.5 0.00 0.03 0.03 39 1005.6
20260503222510 23 294 4.8 17.7 0.00 0.03 0.03 39 1005.6
20260503222010 22 274 6.4 17.7 0.00 0.03 0.03 39 1005.6
20260503221530 23 231 6.4 20.9 0.00 0.03 0.03 39 1005.6
20260503221008 22 222 6.4 22.5 0.00 0.03 0.03 41 1005.6
20260503220511 22 83 11.3 22.5 0.00 0.03 0.03 41 1005.5
20260503220030 22 256 8.0 24.1 0.00 0.03 0.03 42 1005.6
20260503215508 21 232 6.4 19.3 0.00 0.03 0.03 42 1005.7
20260503215006 22 266 8.0 17.7 0.00 0.03 0.03 40 1005.7
20260503214536 22 255 8.0 24.1 0.00 0.03 0.03 40 1005.7
20260503214010 23 242 9.7 24.1 0.00 0.03 0.03 37 1005.7
20260503213507 23 210 6.4 16.1 0.00 0.03 0.03 34 1005.7
20260503213029 23 23 3.2 16.1 0.00 0.03 0.03 37 1005.7
20260503212513 23 207 6.4 19.3 0.00 0.03 0.03 37 1005.7
20260503212010 23 207 8.0 19.3 0.00 0.03 0.03 36 1005.8
20260503211526 23 259 1.6 14.5 0.00 0.03 0.03 37 1005.7
20260503211013 23 299 4.8 20.9 0.00 0.03 0.03 34 1005.8
20260503210511 23 264 8.0 20.9 0.00 0.03 0.03 33 1005.9
20260503210030 23 17 8.0 20.9 0.00 0.03 0.03 34 1005.9
20260503205507 23 295 12.9 19.3 0.00 0.03 0.03 34 1005.9
20260503205012 23 221 3.2 17.7 0.00 0.03 0.03 34 1006.0
20260503204522 23 287 3.2 19.3 0.00 0.03 0.03 35 1006.1
20260503204002 23 290 6.4 17.7 0.00 0.03 0.03 39 1006.1
20260503203512 23 295 6.4 17.7 0.00 0.03 0.03 37 1006.1
20260503203010 23 319 8.0 17.7 0.00 0.03 0.03 36 1006.1
20260503202503 23 211 3.2 11.3 0.00 0.03 0.03 39 1006.3
20260503202015 23 232 3.2 17.7 0.00 0.03 0.03 38 1006.4
20260503201524 22 200 6.4 16.1 0.00 0.03 0.03 38 1006.5
20260503201004 22 359 9.7 16.1 0.00 0.03 0.03 37 1006.5
20260503200503 22 317 6.4 16.1 0.00 0.03 0.03 38 1006.5
20260503200028 22 297 3.2 16.1 0.00 0.03 0.03 40 1006.6
20260503195508 22 231 4.8 14.5 0.00 0.03 0.03 40 1006.6
20260503195008 22 232 6.4 14.5 0.00 0.03 0.03 40 1006.6
20260503194528 22 328 4.8 11.3 0.00 0.03 0.03 41 1006.7
20260503194015 22 251 3.2 14.5 0.00 0.03 0.03 39 1006.9
20260503193508 21 207 4.8 17.7 0.00 0.03 0.03 39 1006.9
20260503193042 21 188 8.0 27.4 0.00 0.03 0.03 42 1007.0
20260503192509 21 201 4.8 27.4 0.00 0.03 0.03 40 1007.1
20260503192007 22 274 6.4 17.7 0.00 0.03 0.03 39 1007.1
20260503191557 21 273 4.8 14.5 0.00 0.03 0.03 41 1007.1
20260503191008 21 306 6.4 17.7 0.00 0.03 0.03 42 1007.2
20260503190505 21 297 4.8 25.7 0.00 0.03 0.03 41 1007.2
20260503190033 21 322 4.8 25.7 0.00 0.03 0.03 41 1007.2
20260503185505 21 266 6.4 17.7 0.00 0.03 0.03 41 1007.2
20260503185006 21 234 8.0 17.7 0.00 0.03 0.03 41 1007.4
20260503184527 21 295 6.4 24.1 0.00 0.03 0.03 41 1007.5
20260503184011 20 257 4.8 24.1 0.00 0.03 0.03 44 1007.6
20260503183512 20 246 6.4 22.5 0.00 0.03 0.03 41 1007.7
20260503183020 20 296 8.0 22.5 0.00 0.03 0.03 42 1007.7
20260503182509 20 226 6.4 17.7 0.00 0.03 0.03 39 1007.7
20260503182010 20 286 8.0 22.5 0.00 0.03 0.03 41 1007.8
20260503181529 20 210 6.4 22.5 0.00 0.03 0.03 41 1007.8
20260503181008 20 303 6.4 22.5 0.00 0.03 0.03 42 1007.9
20260503180507 20 244 8.0 22.5 0.00 0.03 0.03 41 1007.9
20260503180008 20 236 6.4 17.7 0.00 0.03 0.03 47 1008.0
20260503175508 19 231 8.0 17.7 0.00 0.03 0.03 44 1007.9
20260503175003 19 215 9.7 19.3 0.00 0.03 0.03 42 1008.0
20260503174543 18 274 9.7 20.9 0.00 0.03 0.03 45 1008.2
20260503174012 18 219 8.0 20.9 0.00 0.03 0.03 45 1008.3
20260503173511 18 261 6.4 20.9 0.00 0.03 0.03 45 1008.3
20260503173018 18 242 8.0 24.1 0.00 0.03 0.03 46 1008.3
20260503172509 18 139 11.3 24.1 0.00 0.03 0.03 46 1008.3
20260503172012 17 238 12.9 24.1 0.00 0.03 0.03 45 1008.5
20260503171522 17 212 4.8 24.1 0.00 0.03 0.03 47 1008.6
20260503171007 17 300 11.3 24.1 0.00 0.03 0.03 44 1008.7
20260503170507 17 240 6.4 24.1 0.00 0.03 0.03 45 1008.9